Location: Dana
(41.8364°N, 106.7042°W)
Time: 19:56:28
(UTC+00:00)

Injun/Solrad 3 - Pass Details

Date: 11 May 2026
Orbit: 867 x 989 km, 66.8° (Epoch: 6 June)

Event Time Altitude Azimuth Distance (km) Brightness Sun altitude
Rises 21:42:20 0° 156° (SSE) 3,489 10.9 48.7°
Reaches altitude 10° 21:45:58 10° 134° (SE) 2,579 10.2 48.1°
Maximum altitude 21:49:06 15° 102° (ESE) 2,278 9.8 47.5°
Drops below altitude 10° 21:52:18 10° 70° (ENE) 2,633 10.0 47.0°
Sets 21:56:03 0° 48° (NE) 3,610 10.6 46.3°
